UIA8756 RCFG-RCSS

Flight info

Callsign UIA8756
Flight time 0h 36m
Altitude 12800
Route HIPPO1A HIPPO DCT DEFOE/N0286F110 DCT D340Q DCT NOVAS DCT TAZAN DCT FF10
Aircraft AT75/M-SDFGIRY/S

Departure

Time 2026-05-09 03:41
Airport Matsu Nangan Airport (RCFG)

Arrival

Time 2026-05-09 04:18
Airport Taipei Songshan International Airport (RCSS)
Time Latitude Longitude Altitude Speed Heading
2026-05-09 03:24 26.15750 119.95622 225 ft 0 kts 294°
2026-05-09 03:38 26.15756 119.95638 225 ft 11 kts 125°
2026-05-09 03:38 26.15750 119.95649 224 ft 0 kts 119°
2026-05-09 03:39 26.15731 119.95686 219 ft 13 kts 128°
2026-05-09 03:39 26.15595 119.95635 208 ft 24 kts 208°
2026-05-09 03:40 26.15435 119.95549 196 ft 26 kts 205°
2026-05-09 03:40 26.15377 119.95496 192 ft 13 kts 231°
2026-05-09 03:40 26.15364 119.95512 190 ft 0 kts 25°
2026-05-09 03:40 26.15519 119.95594 203 ft 62 kts 24°
2026-05-09 03:41 26.16082 119.95905 275 ft 110 kts 26°
2026-05-09 03:41 26.16804 119.96291 644 ft 120 kts 25°
2026-05-09 03:41 26.17240 119.96561 924 ft 120 kts 29°
2026-05-09 03:41 26.17784 119.97163 1338 ft 123 kts 54°
2026-05-09 03:42 26.17994 119.98097 1717 ft 135 kts 89°
2026-05-09 03:42 26.17803 119.99101 2194 ft 132 kts 93°
2026-05-09 03:42 26.17640 120.00214 2363 ft 156 kts 94°
2026-05-09 03:42 26.17464 120.01414 2823 ft 158 kts 95°
2026-05-09 03:43 26.17295 120.02595 3303 ft 157 kts 95°
2026-05-09 03:43 26.17124 120.03796 3772 ft 157 kts 95°
2026-05-09 03:43 26.16954 120.04999 4225 ft 157 kts 95°
2026-05-09 03:43 26.16785 120.06193 4663 ft 157 kts 95°
2026-05-09 03:44 26.16616 120.07388 5090 ft 158 kts 96°
2026-05-09 03:44 26.16446 120.08591 5510 ft 158 kts 96°
2026-05-09 03:44 26.16275 120.09798 5920 ft 159 kts 96°
2026-05-09 03:44 26.16105 120.11000 6319 ft 159 kts 96°
2026-05-09 03:45 26.15931 120.12225 6715 ft 160 kts 97°
2026-05-09 03:45 26.15759 120.13437 7095 ft 160 kts 97°
2026-05-09 03:45 26.15585 120.14663 7471 ft 161 kts 97°
2026-05-09 03:45 26.15411 120.15891 7839 ft 162 kts 98°
2026-05-09 03:46 26.15236 120.17122 8195 ft 162 kts 98°
2026-05-09 03:46 26.15058 120.18367 8547 ft 163 kts 98°
2026-05-09 03:46 26.14880 120.19621 8892 ft 164 kts 99°
2026-05-09 03:46 26.14701 120.20878 9229 ft 165 kts 99°
2026-05-09 03:47 26.14523 120.22126 9555 ft 166 kts 99°
2026-05-09 03:47 26.14177 120.23338 9840 ft 169 kts 128°
2026-05-09 03:47 26.13328 120.24248 10190 ft 169 kts 135°
2026-05-09 03:47 26.12445 120.25092 10501 ft 170 kts 137°
2026-05-09 03:48 26.11525 120.25935 10812 ft 171 kts 138°
2026-05-09 03:48 26.10603 120.26766 11115 ft 171 kts 139°
2026-05-09 03:48 26.09684 120.27588 11410 ft 172 kts 139°
2026-05-09 03:48 26.08751 120.28419 11701 ft 172 kts 139°
2026-05-09 03:49 26.07812 120.29256 11987 ft 173 kts 140°
2026-05-09 03:49 26.06879 120.30086 12260 ft 173 kts 140°
2026-05-09 03:49 26.05941 120.30920 12526 ft 174 kts 140°
2026-05-09 03:49 26.04984 120.31772 12755 ft 177 kts 140°
2026-05-09 03:50 26.03994 120.32652 12800 ft 189 kts 140°
2026-05-09 03:50 26.02934 120.33594 12807 ft 201 kts 140°
2026-05-09 03:50 26.01806 120.34597 12807 ft 211 kts 140°
2026-05-09 03:50 26.00632 120.35641 12805 ft 220 kts 140°
2026-05-09 03:51 25.99429 120.36710 12803 ft 227 kts 140°
2026-05-09 03:51 25.98178 120.37820 12801 ft 232 kts 140°
2026-05-09 03:51 25.96904 120.38953 12800 ft 237 kts 140°
2026-05-09 03:51 25.95611 120.40101 12799 ft 241 kts 140°
2026-05-09 03:52 25.94304 120.41260 12798 ft 244 kts 140°
2026-05-09 03:52 25.92979 120.42436 12798 ft 246 kts 140°
2026-05-09 03:52 25.91623 120.43639 12797 ft 248 kts 140°
2026-05-09 03:52 25.90283 120.44827 12797 ft 250 kts 140°
2026-05-09 03:53 25.88903 120.46051 12799 ft 251 kts 140°
2026-05-09 03:53 25.87542 120.47257 12799 ft 252 kts 140°
2026-05-09 03:53 25.86166 120.48476 12799 ft 253 kts 140°
2026-05-09 03:53 25.84788 120.49696 12795 ft 254 kts 140°
2026-05-09 03:54 25.83417 120.50910 12791 ft 255 kts 140°
2026-05-09 03:54 25.82030 120.52138 12787 ft 255 kts 140°
2026-05-09 03:54 25.80641 120.53367 12782 ft 256 kts 140°
2026-05-09 03:54 25.79242 120.54605 12778 ft 256 kts 140°
2026-05-09 03:55 25.77858 120.55830 12774 ft 256 kts 140°
2026-05-09 03:55 25.76639 120.57280 12776 ft 256 kts 131°
2026-05-09 03:55 25.75471 120.58777 12764 ft 256 kts 130°
2026-05-09 03:55 25.74309 120.60278 12759 ft 256 kts 130°
2026-05-09 03:56 25.73153 120.61777 12754 ft 257 kts 130°
2026-05-09 03:56 25.71990 120.63285 12749 ft 257 kts 130°
2026-05-09 03:56 25.70831 120.64789 12743 ft 257 kts 130°
2026-05-09 03:56 25.69669 120.66296 12741 ft 257 kts 130°
2026-05-09 03:57 25.68510 120.67801 12737 ft 257 kts 130°
2026-05-09 03:57 25.67346 120.69311 12732 ft 257 kts 130°
2026-05-09 03:57 25.66186 120.70815 12726 ft 257 kts 130°
2026-05-09 03:57 25.65025 120.72321 12721 ft 258 kts 130°
2026-05-09 03:58 25.63871 120.73816 12719 ft 258 kts 130°
2026-05-09 03:58 25.62702 120.75330 12719 ft 257 kts 130°
2026-05-09 03:58 25.61529 120.76850 12719 ft 257 kts 130°
2026-05-09 03:58 25.60378 120.78339 12719 ft 257 kts 130°
2026-05-09 03:59 25.59211 120.79851 12719 ft 257 kts 130°
2026-05-09 03:59 25.58050 120.81352 12719 ft 257 kts 130°
2026-05-09 03:59 25.56893 120.82849 12719 ft 257 kts 130°
2026-05-09 03:59 25.55718 120.84368 12719 ft 257 kts 130°
2026-05-09 04:00 25.54563 120.85861 12718 ft 257 kts 130°
2026-05-09 04:00 25.53401 120.87363 12718 ft 257 kts 130°
2026-05-09 04:00 25.52242 120.88860 12718 ft 257 kts 130°
2026-05-09 04:00 25.51069 120.90375 12718 ft 257 kts 130°
2026-05-09 04:01 25.49920 120.91858 12718 ft 257 kts 130°
2026-05-09 04:01 25.48757 120.93359 12718 ft 257 kts 130°
2026-05-09 04:01 25.47591 120.94863 12718 ft 257 kts 130°
2026-05-09 04:01 25.46420 120.96374 12718 ft 257 kts 130°
2026-05-09 04:02 25.45265 120.97862 12718 ft 257 kts 130°
2026-05-09 04:02 25.44093 120.99371 12718 ft 257 kts 130°
2026-05-09 04:02 25.42938 121.00859 12718 ft 257 kts 130°
2026-05-09 04:02 25.41772 121.02361 12717 ft 257 kts 130°
2026-05-09 04:03 25.40610 121.03857 12717 ft 257 kts 130°
2026-05-09 04:03 25.39446 121.05354 12717 ft 257 kts 130°
2026-05-09 04:03 25.38281 121.06854 12717 ft 257 kts 130°
2026-05-09 04:03 25.37110 121.08361 12717 ft 257 kts 129°
2026-05-09 04:04 25.35941 121.09863 12613 ft 261 kts 129°
2026-05-09 04:04 25.34617 121.11269 12461 ft 267 kts 141°
2026-05-09 04:04 25.32999 121.12314 12310 ft 274 kts 153°
2026-05-09 04:04 25.31164 121.12948 12157 ft 280 kts 165°
2026-05-09 04:05 25.29202 121.13077 11757 ft 283 kts 169°
2026-05-09 04:05 25.27520 121.14035 11323 ft 276 kts 134°
2026-05-09 04:05 25.26309 121.15641 10918 ft 276 kts 133°
2026-05-09 04:05 25.24954 121.17105 10742 ft 269 kts 135°
2026-05-09 04:06 25.23616 121.18483 10714 ft 258 kts 135°
2026-05-09 04:06 25.22312 121.19813 10623 ft 251 kts 134°
2026-05-09 04:06 25.21035 121.21114 10444 ft 249 kts 134°
2026-05-09 04:06 25.19769 121.22402 10266 ft 247 kts 134°
2026-05-09 04:07 25.18513 121.23680 10088 ft 246 kts 134°
2026-05-09 04:07 25.17265 121.24949 9911 ft 245 kts 134°
2026-05-09 04:07 25.16011 121.26223 9732 ft 244 kts 134°
2026-05-09 04:07 25.14775 121.27480 9556 ft 240 kts 134°
2026-05-09 04:08 25.13568 121.28705 9182 ft 235 kts 134°
2026-05-09 04:08 25.12370 121.29922 8687 ft 236 kts 134°
2026-05-09 04:08 25.11156 121.31154 8182 ft 236 kts 134°
2026-05-09 04:08 25.09955 121.32374 7683 ft 236 kts 134°
2026-05-09 04:09 25.08749 121.33597 7182 ft 237 kts 134°
2026-05-09 04:09 25.07853 121.35045 6644 ft 232 kts 103°
2026-05-09 04:09 25.07637 121.36791 6166 ft 230 kts 94°
2026-05-09 04:09 25.07546 121.38532 5670 ft 229 kts 92°
2026-05-09 04:10 25.07480 121.40279 5170 ft 229 kts 92°
2026-05-09 04:10 25.07419 121.42039 4664 ft 229 kts 92°
2026-05-09 04:10 25.07015 121.43697 4120 ft 232 kts 124°
2026-05-09 04:10 25.05697 121.44681 3607 ft 238 kts 161°
2026-05-09 04:11 25.04032 121.44659 3118 ft 242 kts 183°
2026-05-09 04:11 25.02399 121.44310 2575 ft 248 kts 202°
2026-05-09 04:11 25.01200 121.42936 2092 ft 252 kts 244°
2026-05-09 04:11 25.01049 121.41129 1993 ft 234 kts 285°
2026-05-09 04:12 25.01901 121.39744 1978 ft 207 kts 329°
2026-05-09 04:12 25.03163 121.39400 1983 ft 178 kts 11°
2026-05-09 04:12 25.04333 121.39600 2042 ft 155 kts 14°
2026-05-09 04:12 25.05298 121.39822 1959 ft 134 kts 31°
2026-05-09 04:13 25.05833 121.40516 1975 ft 111 kts 64°
2026-05-09 04:13 25.06181 121.41232 1984 ft 103 kts 64°
2026-05-09 04:13 25.06527 121.41952 2029 ft 111 kts 65°
2026-05-09 04:13 25.06872 121.42712 1994 ft 110 kts 70°
2026-05-09 04:14 25.07073 121.43491 1982 ft 101 kts 80°
2026-05-09 04:14 25.07171 121.44241 1981 ft 95 kts 85°
2026-05-09 04:14 25.07217 121.44997 2038 ft 105 kts 88°
2026-05-09 04:14 25.07263 121.45809 1918 ft 102 kts 85°
2026-05-09 04:15 25.07308 121.46555 1776 ft 97 kts 87°
2026-05-09 04:15 25.07292 121.47304 1512 ft 96 kts 90°
2026-05-09 04:15 25.07266 121.48051 1260 ft 99 kts 92°
2026-05-09 04:15 25.07236 121.48819 1079 ft 103 kts 93°
2026-05-09 04:16 25.07181 121.49609 994 ft 102 kts 93°
2026-05-09 04:16 25.07141 121.50381 785 ft 100 kts 92°
2026-05-09 04:16 25.07111 121.51138 621 ft 98 kts 91°
2026-05-09 04:16 25.07083 121.51883 490 ft 97 kts 92°
2026-05-09 04:17 25.07059 121.52622 344 ft 94 kts 91°
2026-05-09 04:17 25.07034 121.53360 185 ft 96 kts 91°
2026-05-09 04:17 25.07005 121.54103 49 ft 95 kts 92°
2026-05-09 04:17 25.06976 121.54773 21 ft 78 kts 92°
2026-05-09 04:18 25.06965 121.55074 19 ft 27 kts 91°
2026-05-09 04:18 25.06961 121.55295 17 ft 26 kts 91°
2026-05-09 04:18 25.06942 121.55454 18 ft 15 kts 108°
2026-05-09 04:18 25.06914 121.55549 19 ft 14 kts 109°
2026-05-09 04:19 25.06861 121.55665 19 ft 17 kts 135°
2026-05-09 04:19 25.06781 121.55722 21 ft 10 kts 180°
2026-05-09 04:19 25.06780 121.55594 20 ft 23 kts 271°
2026-05-09 04:19 25.06787 121.55424 18 ft 21 kts 273°
2026-05-09 04:20 25.06791 121.55265 18 ft 19 kts 270°
2026-05-09 04:20 25.06745 121.55132 19 ft 19 kts 275°
2026-05-09 04:20 25.06710 121.55051 21 ft 10 kts 178°
2026-05-09 04:20 25.06696 121.55052 21 ft 0 kts 179°